Wind_Speed
18 19 18 16 14 12 9 6 5 5 6 8 7 9 10 10 9 8 9 10 9 8 9 9 9 9 9 9 9 9 9 9 9 8 8 8 7 7 6 6 5 4 4 3
18 17 17 17 16 14 11 10 8 8 8 10 10 11 11 10 9 8 9 9 9 8 7 8 7 7 8 7 7 8 8 8 7 7 7 7 7 6 6 5 4 3 3 2
17 15 17 18 17 15 14 12 11 11 11 12 13 13 13 12 12 11 9 9 9 8 7 6 6 6 7 6 6 6 6 7 6 5 5 5 5 5 5 4 3 2 1 1
17 17 18 18 18 17 15 14 14 14 15 14 14 16 15 15 14 13 12 10 10 8 7 7 5 5 5 5 5 5 5 5 5 4 3 3 3 4 3 3 2 1 1 1
17 17 18 17 16 17 16 16 16 16 17 17 18 18 16 16 16 15 14 13 12 11 9 8 6 5 5 5 5 5 5 4 4 3 2 1 2 2 2 2 2 2 2 3
17 18 17 17 16 16 16 18 18 18 19 19 17 19 17 16 16 16 17 16 14 12 11 9 8 8 8 7 6 6 6 5 4 3 3 3 3 2 2 2 3 3 3 4
17 18 18 19 18 17 18 19 20 21 20 18 18 20 18 16 15 16 17 16 14 13 12 12 11 11 10 8 7 7 6 5 5 4 4 4 4 3 3 3 4 4 4 5
19 19 20 19 19 18 19 21 22 22 21 19 19 20 17 16 16 15 15 16 13 14 15 14 13 12 11 10 9 9 7 7 7 6 6 5 6 6 6 6 5 5 5 6
20 19 19 20 20 20 20 22 23 24 22 22 22 21 19 18 17 16 16 17 16 16 16 14 14 13 12 11 10 10 10 9 9 9 9 8 8 8 7 7 7 7 7 7
22 21 20 20 22 22 22 22 24 27 26 26 25 23 19 19 18 17 17 18 17 16 17 16 14 15 15 13 12 12 12 12 12 12 12 11 11 10 10 9 9 10 10 10
24 25 23 23 23 24 25 25 25 26 28 28 28 26 23 22 20 20 19 20 19 18 18 18 17 15 16 16 16 15 14 15 15 15 15 15 14 14 13 13 12 12 13 13
27 27 27 25 25 26 27 28 27 28 29 30 30 30 27 25 23 22 22 22 22 21 22 21 20 18 18 19 18 17 17 17 18 18 18 18 17 17 16 15 15 15 15 15
29 30 30 29 29 29 30 30 30 31 32 33 32 31 29 29 27 25 25 24 24 25 24 23 22 20 20 20 20 20 19 20 20 20 19 19 19 18 17 17 17 17 18 18
31 32 33 33 32 32 33 32 32 32 33 34 33 33 31 29 29 29 27 26 25 26 26 25 24 24 23 21 21 22 21 21 22 22 21 22 21 20 20 20 19 20 20 21
33 34 34 33 33 34 35 35 34 34 35 35 33 34 32 30 29 29 29 29 29 28 28 28 27 26 25 24 23 23 24 23 23 24 24 23 23 23 22 22 22 22 22 23
34 35 35 34 34 36 36 35 35 35 35 34 34 34 31 31 31 30 31 31 31 30 30 30 29 28 27 27 25 25 26 26 26 26 25 24 24 25 24 25 25 25 25 25
34 35 35 35 35 37 37 35 34 35 36 35 35 34 34 34 34 33 32 32 31 31 31 31 32 32 30 30 29 28 27 28 27 27 27 28 27 27 28 28 28 29 29 28
33 34 35 35 35 38 38 37 37 36 36 36 35 34 34 36 36 34 34 34 34 34 34 33 32 32 31 31 31 30 29 28 28 29 30 30 31 31 31 31 31 31 31 30
34 34 35 35 36 37 37 36 37 38 38 38 38 37 36 37 38 37 37 37 36 36 36 35 34 32 32 32 31 31 30 29 29 30 30 31 32 32 32 32 32 32 32 32
33 34 35 35 37 37 35 35 37 37 39 37 38 38 38 38 38 37 37 38 37 37 36 36 34 33 34 33 33 31 31 31 31 31 31 32 32 32 33 33 33 33 33 34
32 33 34 35 36 37 36 37 38 38 39 38 38 38 39 40 39 38 37 37 38 38 38 37 36 36 36 35 34 33 33 33 33 32 33 33 34 34 35 35 35 35 34 35
32 32 33 34 37 37 37 37 37 38 38 38 38 38 38 39 39 38 37 36 36 36 37 37 36 35 36 35 35 35 35 35 34 34 35 35 36 36 36 36 36 35 35 35
34 34 35 36 37 37 37 37 37 37 39 38 38 37 37 37 38 36 36 35 34 35 36 36 37 35 36 35 35 36 36 35 35 36 36 36 37 37 37 37 37 36 36 36
36 36 35 36 36 36 37 38 38 39 38 38 37 37 36 36 37 37 37 36 35 35 35 36 36 35 34 35 35 36 36 37 36 37 37 37 37 37 37 38 37 37 37 37
34 35 35 36 35 35 35 36 37 37 37 38 38 38 37 35 35 36 36 36 36 35 35 36 36 36 34 34 35 35 36 36 37 37 37 37 37 37 37 37 38 38 37 37
31 34 35 34 34 34 33 34 36 36 36 36 36 37 37 36 35 34 35 36 35 34 35 35 36 35 35 34 35 36 36 36 37 37 37 37 37 37 37 37 37 38 37 37
Wind_Direction
216 215 214 212 209 203 202 220 239 251 265 269 282 293 304 310 317 333 341 345 353 10 18 20 23 27 30 35 40 43 49 53 55 60 68 72 72 72 75 80 90 104 117 125
218 219 218 215 211 213 216 232 242 246 257 263 268 278 288 293 304 314 318 329 341 356 7 12 16 15 16 20 29 34 38 43 48 54 55 60 67 69 69 71 78 90 105 115
220 216 218 219 217 220 226 232 238 253 253 258 265 270 277 286 290 296 295 308 317 330 345 358 359 357 0 3 12 18 22 28 36 45 48 53 62 66 63 59 61 68 105 155
217 215 219 220 221 224 228 231 236 245 248 253 261 267 271 277 279 283 284 285 296 302 313 333 337 334 341 346 351 360 3 18 24 33 36 39 58 55 52 48 36 30 351 264
218 218 224 225 225 230 234 235 235 241 246 249 255 264 269 274 275 277 280 281 282 286 292 308 314 312 316 320 325 331 343 352 1 8 5 4 22 25 23 23 2 338 289 265
222 220 226 230 231 236 237 236 237 241 244 246 250 260 267 272 278 278 277 281 274 281 284 291 300 298 296 300 299 305 308 320 326 329 321 318 321 332 341 324 313 299 270 261
225 223 229 232 235 235 234 236 239 241 245 246 246 254 262 267 271 272 273 276 272 270 274 282 289 291 292 287 283 282 285 297 306 304 300 305 305 302 301 296 297 294 284 277
228 226 228 232 237 239 238 240 244 247 248 246 248 255 260 262 267 268 269 269 271 273 278 278 281 279 277 277 280 275 281 285 287 286 285 289 293 291 293 292 289 297 292 285
235 232 227 231 235 238 239 242 244 248 249 249 248 255 258 261 266 270 276 272 275 275 279 278 282 275 274 273 275 280 283 279 280 280 276 277 279 281 285 287 283 285 289 286
241 238 230 232 234 235 239 241 244 247 249 250 249 252 257 259 258 267 274 271 269 278 279 279 280 277 274 276 274 278 279 275 273 275 272 273 274 276 278 278 278 280 282 285
246 242 232 231 235 238 239 241 244 247 248 252 253 251 253 257 259 262 266 270 269 274 277 280 279 277 276 277 277 278 280 276 274 275 274 270 269 273 272 274 276 277 279 279
244 244 239 234 236 239 241 242 244 247 248 251 255 256 254 257 260 263 266 268 270 271 274 276 278 280 277 276 276 278 278 279 276 271 272 272 271 272 274 274 275 277 278 277
243 245 245 239 235 236 238 239 243 248 249 250 254 258 259 259 260 263 265 267 268 274 272 268 273 276 276 275 274 276 277 278 277 271 270 273 272 271 273 275 274 277 277 278
244 246 247 244 240 239 239 239 242 246 248 250 253 257 259 260 260 261 262 263 267 271 272 268 270 273 273 274 276 275 274 274 274 274 273 273 271 271 271 271 274 275 277 278
245 246 247 247 243 242 244 243 243 245 249 251 254 256 256 256 257 260 261 261 264 269 270 270 268 272 274 274 275 274 272 270 271 273 275 270 268 272 272 274 275 277 278 278
246 247 248 248 247 244 244 245 245 245 247 250 252 253 253 254 256 258 259 261 264 265 268 268 267 269 272 274 273 273 270 268 267 270 274 271 268 272 274 274 276 277 278 277
246 249 249 249 247 245 243 243 244 245 246 248 250 252 254 254 258 261 261 261 264 264 265 265 263 266 269 270 271 270 269 267 268 269 270 269 268 269 270 271 273 276 279 277
246 248 249 249 247 245 244 243 243 244 245 247 251 252 254 256 259 261 262 263 265 266 266 266 265 267 269 270 269 268 268 269 268 268 269 269 269 269 270 272 273 276 279 278
248 249 250 249 247 247 246 246 246 246 247 248 250 253 256 258 259 260 262 264 265 266 268 267 266 267 268 268 267 267 267 268 269 269 270 271 272 273 275 276 275 275 277 277
248 250 251 251 249 248 248 247 249 251 251 249 250 252 253 256 259 260 261 262 262 263 266 265 264 266 267 267 268 268 268 269 270 271 273 272 273 273 274 276 275 274 275 277
246 248 251 252 251 251 252 252 252 253 254 252 252 254 254 256 259 259 260 261 263 265 266 266 266 267 267 268 268 268 268 268 269 271 273 273 274 274 274 275 276 275 274 275
249 251 251 253 253 254 255 255 255 255 255 255 254 255 257 259 259 259 261 263 265 266 267 267 267 267 267 267 267 268 270 269 269 270 272 273 274 274 276 276 276 276 276 276
251 254 254 254 255 256 256 255 256 255 256 256 255 255 256 259 259 260 261 263 267 268 267 268 268 265 265 265 266 268 269 270 270 271 272 273 274 275 276 277 277 276 277 278
252 253 255 255 256 257 256 256 257 258 258 257 256 257 258 258 259 259 261 263 266 269 269 268 267 264 263 264 266 267 267 268 269 270 272 273 273 274 275 276 277 277 277 278
254 255 255 256 257 256 254 256 258 259 258 256 256 256 256 255 256 258 258 260 264 267 269 269 267 264 264 264 265 266 267 266 267 269 271 272 272 272 274 275 276 277 277 278
258 256 256 257 257 256 254 255 256 259 259 258 257 257 257 255 255 257 259 261 265 267 268 268 266 264 264 264 265 266 267 268 268 269 271 272 272 273 273 273 274 275 276 276
Height
5894 5897 5898 5901 5902 5904 5905 5905 5906 5907 5907 5907 5907 5907 5906 5906 5905 5905 5904 5904 5903 5902 5901 5900 5899 5897 5896 5895 5894 5893 5892 5891 5890 5889 5888 5888 5887 5887 5887 5887 5887 5887 5887 5887
5891 5894 5896 5897 5899 5901 5902 5902 5903 5905 5905 5905 5904 5904 5904 5903 5903 5903 5903 5902 5902 5901 5900 5900 5900 5898 5897 5896 5895 5894 5893 5892 5891 5890 5889 5888 5888 5888 5887 5887 5887 5887 5887 5887
5888 5891 5892 5893 5895 5897 5898 5899 5900 5902 5902 5902 5901 5902 5902 5902 5902 5901 5901 5901 5901 5900 5900 5899 5899 5898 5897 5896 5895 5894 5893 5892 5891 5890 5889 5889 5888 5888 5887 5887 5887 5887 5887 5886
5884 5886 5887 5889 5891 5893 5894 5896 5898 5899 5899 5899 5899 5898 5899 5898 5898 5898 5899 5899 5899 5898 5898 5898 5898 5897 5896 5895 5895 5894 5893 5892 5891 5890 5889 5888 5888 5887 5887 5887 5886 5886 5886 5886
5881 5882 5883 5885 5887 5889 5890 5892 5894 5895 5895 5896 5896 5895 5896 5895 5895 5896 5896 5896 5896 5896 5896 5897 5897 5896 5895 5894 5893 5893 5892 5891 5890 5889 5888 5888 5887 5887 5886 5886 5885 5885 5884 5884
5877 5879 5880 5882 5883 5885 5886 5888 5889 5890 5890 5892 5893 5892 5892 5893 5892 5893 5893 5893 5893 5893 5894 5894 5894 5894 5893 5892 5891 5891 5890 5889 5888 5888 5887 5887 5886 5885 5885 5884 5884 5883 5883 5882
5873 5874 5876 5877 5879 5880 5882 5883 5884 5885 5885 5887 5888 5887 5889 5889 5889 5889 5889 5889 5889 5890 5890 5890 5890 5891 5890 5889 5889 5888 5887 5888 5887 5886 5886 5885 5884 5884 5883 5883 5882 5882 5881 5880
5868 5870 5872 5873 5874 5876 5877 5879 5880 5881 5881 5882 5882 5882 5884 5885 5885 5884 5884 5885 5885 5885 5886 5886 5887 5887 5886 5886 5885 5885 5884 5885 5885 5884 5883 5883 5882 5882 5882 5881 5880 5879 5879 5878
5862 5865 5867 5868 5869 5871 5872 5873 5875 5875 5876 5876 5877 5878 5879 5879 5880 5879 5879 5880 5880 5881 5882 5882 5882 5882 5882 5882 5882 5882 5881 5881 5882 5881 5881 5880 5879 5879 5878 5878 5877 5877 5876 5875
5856 5859 5862 5863 5864 5865 5867 5868 5869 5869 5870 5870 5872 5873 5874 5874 5875 5875 5875 5875 5876 5876 5878 5878 5877 5877 5878 5878 5878 5878 5878 5878 5878 5877 5876 5876 5875 5875 5875 5874 5873 5873 5873 5872
5850 5852 5856 5857 5858 5859 5861 5862 5863 5863 5864 5864 5865 5869 5869 5870 5871 5871 5871 5871 5871 5872 5873 5873 5873 5874 5873 5873 5873 5873 5872 5873 5873 5873 5872 5871 5870 5870 5870 5870 5869 5869 5868 5867
5842 5845 5847 5850 5853 5853 5854 5855 5856 5857 5857 5858 5859 5863 5863 5864 5865 5865 5865 5865 5866 5866 5867 5867 5868 5868 5868 5868 5868 5868 5868 5868 5868 5867 5867 5866 5865 5865 5864 5864 5864 5863 5863 5862
5835 5837 5839 5842 5846 5847 5846 5847 5848 5849 5850 5851 5852 5856 5856 5857 5859 5860 5860 5860 5860 5860 5861 5862 5862 5861 5862 5863 5863 5862 5862 5863 5862 5860 5861 5861 5860 5860 5859 5859 5858 5858 5857 5857
5827 5829 5831 5834 5836 5837 5838 5840 5841 5841 5842 5843 5844 5846 5848 5850 5851 5853 5854 5854 5854 5854 5855 5855 5855 5855 5856 5856 5856 5856 5856 5857 5856 5855 5854 5854 5854 5854 5853 5853 5852 5851 5851 5850
5819 5820 5822 5825 5827 5828 5830 5832 5833 5834 5834 5836 5837 5839 5841 5843 5844 5846 5846 5847 5847 5848 5848 5848 5848 5848 5849 5849 5849 5850 5850 5850 5849 5848 5847 5847 5847 5846 5846 5846 5845 5844 5844 5843
5810 5812 5813 5816 5818 5819 5821 5823 5825 5826 5827 5827 5829 5831 5833 5834 5836 5837 5838 5839 5839 5840 5840 5840 5840 5841 5841 5842 5842 5842 5842 5841 5841 5841 5840 5840 5839 5839 5838 5838 5838 5837 5836 5835
5801 5803 5804 5806 5808 5809 5812 5815 5816 5817 5818 5820 5821 5823 5824 5826 5827 5828 5829 5830 5831 5832 5832 5832 5832 5833 5833 5834 5834 5834 5833 5833 5833 5833 5833 5832 5832 5831 5831 5830 5830 5829 5829 5828
5792 5793 5794 5796 5798 5799 5805 5805 5806 5808 5809 5810 5811 5813 5815 5817 5817 5818 5820 5821 5822 5823 5823 5822 5823 5823 5824 5825 5825 5825 5825 5824 5824 5824 5824 5824 5823 5822 5822 5822 5821 5821 5820 5819
5781 5783 5784 5785 5787 5789 5793 5795 5796 5798 5799 5801 5803 5804 5805 5806 5807 5808 5810 5811 5812 5813 5813 5813 5813 5814 5814 5815 5815 5815 5815 5815 5815 5815 5815 5814 5814 5813 5813 5813 5813 5812 5811 5811
5771 5772 5774 5775 5777 5779 5785 5786 5786 5788 5789 5792 5793 5795 5796 5797 5798 5799 5800 5801 5801 5802 5802 5802 5802 5803 5804 5804 5805 5805 5806 5806 5806 5806 5806 5806 5805 5805 5804 5803 5802 5802 5802 5801
5762 5763 5764 5766 5766 5769 5774 5775 5777 5778 5779 5781 5783 5784 5786 5787 5788 5789 5789 5790 5791 5791 5792 5792 5792 5793 5793 5794 5795 5796 5797 5797 5797 5797 5797 5797 5796 5795 5795 5794 5793 5792 5791 5791
5752 5754 5755 5756 5757 5761 5763 5764 5766 5767 5768 5770 5772 5773 5775 5776 5777 5778 5779 5780 5780 5781 5781 5781 5782 5783 5784 5785 5785 5786 5787 5787 5787 5787 5787 5787 5786 5786 5785 5784 5783 5781 5780 5779
5743 5744 5745 5747 5749 5750 5752 5753 5754 5756 5757 5759 5761 5763 5764 5765 5767 5768 5769 5770 5771 5772 5772 5772 5772 5773 5774 5775 5776 5776 5776 5776 5776 5777 5777 5776 5775 5775 5774 5774 5773 5771 5770 5769
5734 5734 5735 5736 5737 5739 5741 5742 5743 5745 5747 5748 5750 5752 5753 5755 5757 5759 5759 5760 5761 5762 5762 5763 5763 5763 5764 5765 5766 5766 5766 5766 5766 5766 5766 5765 5765 5764 5763 5762 5761 5760 5759 5757
5724 5724 5724 5725 5727 5728 5730 5731 5732 5734 5736 5737 5739 5741 5742 5744 5746 5747 5749 5750 5751 5752 5752 5752 5752 5752 5753 5754 5755 5755 5755 5755 5755 5755 5754 5754 5754 5753 5752 5751 5750 5749 5747 5746
5714 5714 5714 5715 5717 5717 5720 5721 5722 5723 5725 5727 5728 5730 5731 5733 5735 5736 5737 5739 5741 5741 5741 5741 5741 5741 5742 5743 5744 5744 5744 5744 5744 5743 5743 5742 5742 5741 5740 5739 5738 5736 5736 5734